Sussex, NJ

6:08 AM EST on November 21, 2019 (GMT -0500)
Sussex

Weather History for KFWN - September, 2019

Change the Weather History Date:

Tuesday, September 24, 2019

  Actual Average Record
Temperature  
Mean Temperature 62 °F -  
Max Temperature 75 °F 69 °F 92 °F (1970)
Min Temperature 50 °F 44 °F 27 °F (1963)
Degree Days  
Heating Degree Days 2    
Growing Degree Days 12 (Base 50)    
Moisture  
Dew Point 52 °F    
Average Humidity 70    
Maximum Humidity 96    
Minimum Humidity 37    
Precipitation  
Precipitation 0.00 in - - ()
Sea Level Pressure  
Sea Level Pressure 29.82 in    
Wind  
Wind Speed 2 mph ()    
Max Wind Speed 10 mph    
Max Gust Speed 25 mph    
Visibility 9.3 miles    
Events Rain    
Averages and records for this station are not official NWS values.
T = Trace of Precipitation, MM = Missing Value Source: Averaged Metar Reports

Daily Weather History Graph

Daily Weather History Graph

Search for Another Location

Airport or City:

Astronomy

Sep. 24, 2019 Rise Set
Actual Time 6:47 AM EDT 6:52 PM EDT
Civil Twilight 6:20 AM EDT 7:20 PM EDT
Nautical Twilight 5:48 AM EDT 7:52 PM EDT
Astronomical Twilight 5:15 AM EDT 8:24 PM EDT
Moon 1:26 AM EDT (9/24) 4:39 PM EDT (9/24)
Length of Visible Light 12h 59m
Length of Day
12h 04m
Waning Crescent, 23% of the Moon is Illuminated
Sep 24
Waning Crescent
Sep 28
New
Oct 5
First Quarter
Oct 13
Full
Oct 21
Last Quarter

Hourly Weather History & Observations

Time (EDT) Temp. Dew Point Humidity Pressure Visibility Wind Dir Wind Speed Gust Speed Precip Events Conditions
12:53 AM 64.9 °F 57.0 °F 75% 29.77 in 10.0 mi Calm Calm - N/A   Mostly Cloudy
1:53 AM 62.1 °F 57.0 °F 84% 29.78 in 10.0 mi Calm Calm - N/A   Clear
2:53 AM 64.0 °F 59.0 °F 84% 29.77 in 10.0 mi Calm Calm - N/A   Clear
3:53 AM 59.0 °F 55.9 °F 90% 29.77 in 10.0 mi Calm Calm - N/A   Clear
4:53 AM 57.9 °F 55.9 °F 93% 29.78 in 10.0 mi WSW 3.5 mph - N/A   Clear
5:53 AM 57.0 °F 55.0 °F 93% 29.79 in 10.0 mi SW 3.5 mph - N/A   Clear
6:33 AM 55.0 °F 54.0 °F 96% 29.81 in 1.8 mi Calm Calm - N/A   Clear
6:48 AM 55.4 °F 53.6 °F 94% 29.81 in 2.5 mi Calm Calm - N/A   Clear
6:53 AM 55.0 °F 54.0 °F 96% 29.81 in 9.0 mi Calm Calm - N/A   Clear
8:53 AM 66.9 °F 54.0 °F 63% 29.83 in 10.0 mi Variable 5.8 mph - N/A   Clear
9:53 AM 69.1 °F 54.0 °F 58% 29.83 in 10.0 mi Variable 4.6 mph - N/A   Mostly Cloudy
10:53 AM 71.1 °F 52.0 °F 51% 29.82 in 10.0 mi WNW 5.8 mph - N/A   Mostly Cloudy
11:53 AM 70.0 °F 51.1 °F 51% 29.83 in 10.0 mi West 10.4 mph - N/A   Overcast
12:53 PM 72.0 °F 51.1 °F 48% 29.82 in 10.0 mi West 6.9 mph - N/A   Overcast
1:53 PM 73.0 °F 51.1 °F 46% 29.81 in 10.0 mi West 6.9 mph 25.3 mph N/A   Clear
2:53 PM 71.1 °F 51.1 °F 49% 29.81 in 10.0 mi NW 10.4 mph 18.4 mph N/A   Overcast
3:53 PM 73.0 °F 50.0 °F 44% 29.81 in 10.0 mi West 9.2 mph 21.9 mph N/A   Clear
4:53 PM 73.9 °F 46.0 °F 37% 29.81 in 10.0 mi North 8.1 mph 19.6 mph N/A   Partly Cloudy
5:53 PM 71.1 °F 46.9 °F 42% 29.83 in 10.0 mi Variable 5.8 mph - N/A   Clear
6:53 PM 68.0 °F 48.0 °F 49% 29.85 in 10.0 mi North 6.9 mph - N/A   Partly Cloudy
7:53 PM 64.0 °F 48.9 °F 58% 29.87 in 10.0 mi NW 3.5 mph - N/A   Clear
8:53 PM 55.9 °F 48.9 °F 77% 29.88 in 10.0 mi Calm Calm - N/A   Clear
9:53 PM 54.0 °F 50.0 °F 86% 29.90 in 10.0 mi Calm Calm - N/A   Clear
10:53 PM 52.0 °F 48.9 °F 89% 29.91 in 10.0 mi Calm Calm - 0.00 in Rain Light Rain
11:53 PM 50.0 °F 46.9 °F 89% 29.90 in 10.0 mi Calm Calm - 0.00 in   Clear